{"data":{"norad_id":65454,"intl_designator":"2025-194W","name":"STARLINK-35059","alt_names":[],"object_type":"PAYLOAD","status":"ACTIVE","operator":null,"country":"US","launch_date":"2025-09-03","launch_site_code":"AFWTR","launch_vehicle":null,"mission":null,"orbit_class":"UNKNOWN","rcs_meters":null,"size_class":null,"mass_kg":null,"dimensions":null,"purposes":["comms"],"wikipedia_slug":null,"has_3d_model":false,"image_url":null,"decayed_at":null,"tle_current":{"epoch":"2026-05-25T00:57:14.387040Z","epoch_age_seconds":78562,"freshness":"FRESH","line1":"1 65454U 25194W   26145.03974985  .00002658  00000+0  19238-3 0  9994","line2":"2 65454  97.5146 359.7069 0002219  88.1682 271.9798 15.04838834 41152","mean_motion":15.04838834,"eccentricity":0.0002219,"inclination_deg":97.5146,"raan_deg":359.7069,"arg_perigee_deg":88.1682,"mean_anomaly_deg":271.9798,"bstar":0.00019238,"rev_number":4115,"period_min":95.691310422416,"perigee_km":550.46264544177,"apogee_km":553.53824043894,"semimajor_km":6930.1374429404,"source":"CELESTRAK","updated_at":"2026-05-25T13:38:20.810371Z"}}}